Location: Casteau
(50.5142°N, 4.0161°E)
Time: 06:02:11
(UTC+00:00)

USA 238 - Pass Details

Date: 18 September 2020
Orbit: 1006 x 1206 km, 63.4° (Epoch: 25 October)

Event Time Altitude Azimuth Distance (km) Brightness Sun altitude
Rises 19:31:08 0° 315° (NW) 3,927 8.0 -16.4°
Reaches altitude 10° 19:33:45 10° 316° (NW) 2,995 7.1 -16.8°
Maximum altitude 19:40:57 87° 228° (SW) 1,164 3.8 -17.8°
Enters shadow 19:45:44 25° 141° (SE) 2,191 4.8 -18.5°
